Skip Page Navigation
NASA JPL Caltech
NASA Logo - Jet Propulsion Laboratory + View the NASA Portal
+ Center for Near-Earth Object Studies
JPL Home Earth Solar System Stars & Galaxies Technology
JPL Solar System Dynamics
BODIES ORBITS EPHEMERIDES TOOLS PHYSICAL DATA DISCOVERY FAQ SITE MAP
IMPORTANT: The SSD Announcement email list is now available. Major changes are coming in the near future, including possible hostname and/or URL changes. To be notified of such changes, subscribe to this email list.

Please visit this page for more details.


JPL Small-Body Database Browser
Search: [ help ]  
11933 Himuka (1993 ES)
Classification: Main-belt Asteroid          SPK-ID: 2011933
Ephemeris | Orbit Diagram | Orbital Elements | Mission Design | Physical Parameters | Discovery Circumstances | Close-Approach Data ]

[ hide orbit diagram ]

For accurate long-term ephemerides, please instead use our Horizons system.This orbit viewer was implemented using two-body methods, and hence should not be used for determining accurate long-term trajectories (over several years or decades) or planetary encounter circumstances.


[ revert to old Java-based viewer ]

Orbital Elements at Epoch 2458600.5 (2019-Apr-27.0) TDB
Reference: JPL 23 (heliocentric ecliptic J2000)
 Element Value Uncertainty (1-sigma)   Units 
e .1905107653181464 4.7685e-08  
a 2.671822158925028 1.3484e-08 au
q 2.162811274634239 1.2961e-07 au
i 11.43510242984978 5.3822e-06 deg
node 1.880476149012667 1.9546e-05 deg
peri 226.4288728744236 2.2622e-05 deg
M 322.2186985988037 1.1783e-05 deg
tp 2458767.911065522508
(2019-Oct-11.41106552)
5.2411e-05 TDB
period 1595.180191071834
4.37
1.2076e-05
3.306e-08
d
yr
n .2256798335479007 1.7085e-09 deg/d
Q 3.180833043215817 1.6053e-08 au
  Orbit Determination Parameters
   # obs. used (total)      1936  
   data-arc span      15190 days (41.59 yr)  
   first obs. used      1977-10-07  
   last obs. used      2019-05-10  
   planetary ephem.      DE431  
   SB-pert. ephem.      SB431-N16  
   condition code      0  
   norm. resid. RMS      .4758  
   source      ORB  
   producer      Otto Matic  
   solution date      2019-May-30 01:58:35  

Additional Information
 Earth MOID = 1.17207 au 
 Jupiter MOID = 1.87753 au 
 T_jup = 3.326 
[ show covariance matrix ]

Ephemeris | Orbit Diagram | Orbital Elements | Mission Design | Physical Parameters | Discovery Circumstances | Close-Approach Data ]

Physical Parameter Table
Parameter Symbol Value Units Sigma Reference Notes
absolute magnitude H 12.8   n/a MPO395116  
diameter diameter 9.217 km 0.099 urn:nasa:pds:neowise_diameters_albedos::2.0[mainbelt] (http://adsabs.harvard.edu/abs/2014ApJ...791..121M)  
geometric albedo albedo 0.208   0.027 urn:nasa:pds:neowise_diameters_albedos::2.0[mainbelt] (http://adsabs.harvard.edu/abs/2014ApJ...791..121M)  

11933 Himuka           Discovered 1993 Mar. 15 by K. Endate and K. Watanabe at Kitami.
Himuka is an old Japanese name for the Miyazaki prefecture region. The name was selected among other candidates proposed by children who attended the Fureai Space Festival, held in Miyazaki city on the 2004 Space Day in Japan.
NOTE: some special characters may not display properly (any characters within {} are an attempt to place the proper accent above a character)
Reference: 20050125/MPCPages.arcLast Updated: 2005-06-01

[ show close-approach data ]
Alternate Designations
 1993 ES = 1984 FO1 = 1986 VU3 
Ephemeris | Orbit Diagram | Orbital Elements | Mission Design | Physical Parameters | Discovery Circumstances | Close-Approach Data ]
ABOUT SSD CREDITS/AWARDS PRIVACY/COPYRIGHT GLOSSARY LINKS
FirstGov 2019-Dec-08 19:11 UT
(server date/time)  
NASA Home Page
Site Manager:   Ryan S. Park
Webmaster  Alan B. Chamberlin